�������l�o���
Date,Time,MP-1(��Sv/h),MP-2(��Sv/h),MP-3(��Sv/h),MP-4(��Sv/h),MP-5(��Sv/h),MP-6(��Sv/h),MP-7(��Sv/h),MP-8(��Sv/h),����,����(m/s),���J
2024/01/07,00:00,0.510,0.773,0.486,0.975,0.696,0.315,0.562,0.525,�k��,4.4,��
2024/01/07,00:10,0.511,0.773,0.487,0.974,0.697,0.315,0.562,0.524,�k��,6.8,��
2024/01/07,00:20,0.512,0.774,0.486,0.974,0.698,0.315,0.563,0.525,�k��,7.4,��
2024/01/07,00:30,0.512,0.773,0.486,0.975,0.698,0.315,0.563,0.526,�k��,7.9,��
2024/01/07,00:40,0.511,0.773,0.485,0.972,0.696,0.316,0.561,0.525,�k��,5.7,��
2024/01/07,00:50,0.512,0.772,0.487,0.975,0.698,0.315,0.563,0.525,�k��,5.9,��
2024/01/07,01:00,0.511,0.773,0.487,0.973,0.695,0.314,0.561,0.525,�k��,6.8,��
2024/01/07,01:10,0.511,0.772,0.488,0.972,0.696,0.315,0.561,0.525,�k��,6.6,��
2024/01/07,01:20,0.512,0.771,0.485,0.975,0.697,0.314,0.563,0.525,�k�k��,7.3,��
2024/01/07,01:30,0.512,0.774,0.486,0.974,0.697,0.314,0.563,0.526,�k�k��,6.7,��
2024/01/07,01:40,0.512,0.773,0.486,0.974,0.696,0.313,0.562,0.526,�k�k��,7.7,��
2024/01/07,01:50,0.512,0.772,0.487,0.974,0.697,0.316,0.564,0.526,�k�k��,8.7,��
2024/01/07,02:00,0.513,0.772,0.484,0.973,0.697,0.314,0.563,0.525,�k�k��,8.4,��
2024/01/07,02:10,0.512,0.772,0.486,0.973,0.697,0.315,0.564,0.527,�k,6.8,��
2024/01/07,02:20,0.511,0.771,0.486,0.974,0.697,0.315,0.563,0.526,�k,6.5,��
2024/01/07,02:30,0.512,0.773,0.486,0.974,0.698,0.314,0.562,0.526,�k,5.6,��
2024/01/07,02:40,0.512,0.772,0.487,0.975,0.696,0.315,0.564,0.527,�k,7.1,��
2024/01/07,02:50,0.512,0.773,0.485,0.974,0.697,0.314,0.563,0.525,�k�k��,8.0,��
2024/01/07,03:00,0.511,0.773,0.485,0.974,0.696,0.314,0.563,0.526,�k�k��,8.0,��
2024/01/07,03:10,0.510,0.773,0.487,0.973,0.695,0.315,0.563,0.524,�k�k��,7.6,��
2024/01/07,03:20,0.512,0.773,0.486,0.974,0.695,0.314,0.564,0.524,�k�k��,8.1,��
2024/01/07,03:30,0.511,0.773,0.486,0.975,0.696,0.314,0.561,0.525,�k�k��,6.2,��
2024/01/07,03:40,0.512,0.772,0.486,0.974,0.698,0.314,0.564,0.524,�k�k��,5.6,��
2024/01/07,03:50,0.510,0.775,0.486,0.974,0.697,0.315,0.563,0.526,�k�k��,6.9,��
2024/01/07,04:00,0.512,0.773,0.487,0.975,0.696,0.315,0.564,0.526,�k�k��,7.1,��
2024/01/07,04:10,0.511,0.772,0.486,0.974,0.697,0.314,0.564,0.524,�k�k��,7.5,��
2024/01/07,04:20,0.511,0.774,0.486,0.976,0.695,0.315,0.564,0.524,�k,6.3,��
2024/01/07,04:30,0.512,0.772,0.486,0.976,0.695,0.313,0.563,0.525,�k,6.6,��
2024/01/07,04:40,0.512,0.774,0.487,0.974,0.696,0.314,0.562,0.526,�k�k��,6.7,��
2024/01/07,04:50,0.512,0.774,0.486,0.974,0.696,0.314,0.564,0.526,�k�k��,6.9,��
2024/01/07,05:00,0.512,0.773,0.486,0.974,0.696,0.313,0.563,0.526,�k�k��,6.4,��
2024/01/07,05:10,0.513,0.772,0.486,0.977,0.696,0.315,0.564,0.527,�k�k��,6.3,��
2024/01/07,05:20,0.512,0.774,0.486,0.974,0.695,0.314,0.562,0.525,�k�k��,7.1,��
2024/01/07,05:30,0.510,0.773,0.487,0.975,0.697,0.315,0.561,0.525,�k�k��,5.1,��
2024/01/07,05:40,0.510,0.774,0.485,0.972,0.695,0.314,0.562,0.525,�k�k��,4.2,��
2024/01/07,05:50,0.512,0.773,0.485,0.972,0.696,0.312,0.563,0.526,�k�k��,5.9,��
2024/01/07,06:00,0.511,0.772,0.485,0.974,0.697,0.314,0.564,0.525,�k�k��,5.1,��
2024/01/07,06:10,0.511,0.772,0.487,0.975,0.695,0.314,0.562,0.526,�k��,6.8,��
2024/01/07,06:20,0.510,0.773,0.487,0.975,0.697,0.315,0.562,0.524,�k��,8.0,��
2024/01/07,06:30,0.510,0.773,0.485,0.975,0.697,0.314,0.562,0.525,�k��,6.1,��
2024/01/07,06:40,0.511,0.772,0.486,0.975,0.696,0.315,0.562,0.526,�k��,6.8,��
2024/01/07,06:50,0.511,0.773,0.487,0.978,0.698,0.314,0.562,0.526,�k��,5.7,��
2024/01/07,07:00,0.513,0.773,0.485,0.975,0.697,0.313,0.562,0.526,�k��,6.0,��
2024/01/07,07:10,0.511,0.773,0.487,0.978,0.697,0.314,0.562,0.525,�k��,7.1,��
2024/01/07,07:20,0.511,0.774,0.484,0.972,0.698,0.313,0.563,0.524,�k��,7.1,��
2024/01/07,07:30,0.512,0.772,0.485,0.976,0.697,0.313,0.562,0.523,�k��,8.9,��
2024/01/07,07:40,0.512,0.773,0.487,0.976,0.695,0.314,0.563,0.526,�k��,7.7,��
2024/01/07,07:50,0.512,0.774,0.486,0.977,0.697,0.314,0.564,0.524,�k�k��,7.5,��
2024/01/07,08:00,0.511,0.774,0.487,0.976,0.697,0.314,0.562,0.524,�k�k��,6.2,��
2024/01/07,08:10,0.511,0.771,0.487,0.977,0.698,0.314,0.564,0.524,�k�k��,5.0,��
2024/01/07,08:20,0.511,0.774,0.486,0.977,0.696,0.314,0.562,0.526,�k��,5.5,��
2024/01/07,08:30,0.512,0.774,0.485,0.975,0.695,0.314,0.564,0.524,�k�k��,4.7,��
2024/01/07,08:40,0.510,0.774,0.486,0.975,0.697,0.314,0.564,0.524,�k��,5.8,��
2024/01/07,08:50,0.512,0.772,0.487,0.976,0.698,0.314,0.563,0.525,�k��,8.0,��
2024/01/07,09:00,0.514,0.776,0.487,0.975,0.697,0.314,0.565,0.526,�k�k��,8.1,��
2024/01/07,09:10,0.513,0.775,0.486,0.978,0.697,0.315,0.563,0.525,�k��,7.6,��
2024/01/07,09:20,0.512,0.771,0.486,0.976,0.697,0.315,0.565,0.526,�k�k��,5.7,��
2024/01/07,09:30,0.511,0.777,0.487,0.975,0.697,0.314,0.564,0.525,�k�k��,7.5,��
2024/01/07,09:40,0.512,0.774,0.485,0.976,0.696,0.314,0.564,0.526,�k��,7.6,��
2024/01/07,09:50,0.511,0.776,0.486,0.977,0.696,0.314,0.562,0.526,�k�k��,7.1,��
2024/01/07,10:00,0.511,0.773,0.487,0.977,0.697,0.314,0.562,0.526,�k��,8.0,��
2024/01/07,10:10,0.511,0.775,0.486,0.976,0.696,0.314,0.563,0.525,�k��,6.7,��
2024/01/07,10:20,0.512,0.773,0.486,0.979,0.700,0.315,0.563,0.527,�k��,8.2,��
2024/01/07,10:30,0.513,0.773,0.486,0.974,0.698,0.314,0.562,0.527,�k��,7.0,��
2024/01/07,10:40,0.513,0.774,0.486,0.977,0.697,0.314,0.563,0.527,�k�k��,4.5,��
2024/01/07,10:50,0.512,0.774,0.487,0.978,0.698,0.314,0.561,0.527,�k��,7.6,��
2024/01/07,11:00,0.511,0.772,0.488,0.974,0.698,0.313,0.564,0.526,�k��,6.0,��
2024/01/07,11:10,0.512,0.772,0.486,0.977,0.700,0.314,0.564,0.527,���k��,6.9,��
2024/01/07,11:20,0.513,0.773,0.485,0.980,0.700,0.314,0.563,0.527,�k��,5.3,��
2024/01/07,11:30,0.513,0.773,0.486,0.977,0.699,0.314,0.562,0.526,�k��,8.6,��
2024/01/07,11:40,0.514,0.774,0.486,0.979,0.699,0.315,0.562,0.526,�k��,8.7,��
2024/01/07,11:50,0.512,0.775,0.487,0.977,0.700,0.315,0.563,0.527,�k��,7.0,��
2024/01/07,12:00,0.514,0.774,0.488,0.978,0.700,0.315,0.564,0.526,�k��,6.8,��
2024/01/07,12:10,0.513,0.773,0.489,0.978,0.699,0.315,0.563,0.529,�k��,12.5,��
2024/01/07,12:20,0.513,0.774,0.488,0.979,0.699,0.315,0.563,0.527,�k��,10.3,��
2024/01/07,12:30,0.514,0.774,0.487,0.978,0.699,0.316,0.563,0.528,�k��,11.4,��
2024/01/07,12:40,0.514,0.776,0.488,0.979,0.700,0.316,0.563,0.528,�k��,9.0,��
2024/01/07,12:50,0.513,0.774,0.488,0.979,0.700,0.316,0.564,0.529,�k��,7.9,��
2024/01/07,13:00,0.512,0.776,0.487,0.978,0.700,0.314,0.564,0.528,�k��,8.0,��
2024/01/07,13:10,0.513,0.775,0.488,0.978,0.699,0.316,0.563,0.528,�k��,7.3,��
2024/01/07,13:20,0.512,0.774,0.487,0.979,0.700,0.315,0.564,0.527,�k��,8.4,��
2024/01/07,13:30,0.513,0.776,0.488,0.978,0.699,0.317,0.564,0.527,�k��,8.3,��
2024/01/07,13:40,0.512,0.775,0.487,0.978,0.702,0.315,0.564,0.526,�k��,10.2,��
2024/01/07,13:50,0.514,0.775,0.488,0.979,0.701,0.316,0.564,0.524,�k��,8.8,��
2024/01/07,14:00,0.514,0.775,0.488,0.980,0.701,0.316,0.563,0.528,�k��,9.8,��
2024/01/07,14:10,0.516,0.775,0.488,0.982,0.702,0.315,0.563,0.527,�k�k��,7.2,��
2024/01/07,14:20,0.513,0.775,0.488,0.981,0.701,0.315,0.564,0.526,�k��,5.0,��
2024/01/07,14:30,0.513,0.775,0.487,0.979,0.700,0.316,0.564,0.526,�k��,5.2,��
2024/01/07,14:40,0.514,0.774,0.489,0.980,0.700,0.315,0.563,0.528,�k�k��,4.8,��
2024/01/07,14:50,0.514,0.777,0.489,0.980,0.701,0.316,0.565,0.528,�k��,6.3,��
2024/01/07,15:00,0.514,0.776,0.488,0.980,0.701,0.315,0.565,0.529,�k��,4.7,��
2024/01/07,15:10,0.514,0.778,0.489,0.980,0.700,0.314,0.564,0.529,�k��,5.1,��
2024/01/07,15:20,0.514,0.777,0.488,0.977,0.702,0.315,0.564,0.529,�k��,4.5,��
2024/01/07,15:30,0.513,0.777,0.487,0.979,0.701,0.315,0.563,0.528,���k��,3.8,��
2024/01/07,15:40,0.514,0.778,0.487,0.980,0.701,0.315,0.564,0.528,�k��,5.0,��
2024/01/07,15:50,0.515,0.778,0.487,0.979,0.701,0.314,0.563,0.529,�k��,4.7,��
2024/01/07,16:00,0.513,0.779,0.489,0.979,0.700,0.315,0.564,0.530,�k��,5.9,��
2024/01/07,16:10,0.514,0.779,0.486,0.978,0.701,0.314,0.566,0.529,�k�k��,7.6,��
2024/01/07,16:20,0.512,0.779,0.489,0.979,0.700,0.315,0.563,0.529,�k�k��,6.2,��
2024/01/07,16:30,0.514,0.777,0.487,0.978,0.700,0.315,0.565,0.529,�k�k��,6.1,��
2024/01/07,16:40,0.513,0.777,0.490,0.979,0.700,0.315,0.563,0.526,�k��,4.6,��
2024/01/07,16:50,0.514,0.779,0.487,0.981,0.701,0.315,0.563,0.527,�k��,3.9,��
2024/01/07,17:00,0.513,0.777,0.488,0.980,0.700,0.314,0.564,0.527,�k��,5.1,��
2024/01/07,17:10,0.513,0.778,0.487,0.980,0.698,0.315,0.562,0.528,�k��,5.2,��
2024/01/07,17:20,0.511,0.777,0.487,0.978,0.698,0.315,0.562,0.528,�k��,5.3,��
2024/01/07,17:30,0.513,0.776,0.486,0.980,0.697,0.316,0.564,0.527,�k�k��,4.6,��
2024/01/07,17:40,0.513,0.776,0.488,0.978,0.698,0.314,0.564,0.527,�k�k��,4.7,��
2024/01/07,17:50,0.513,0.775,0.487,0.979,0.702,0.314,0.562,0.526,�k,4.7,��
2024/01/07,18:00,0.512,0.778,0.488,0.980,0.701,0.315,0.562,0.526,�k�k��,5.5,��
2024/01/07,18:10,0.513,0.777,0.486,0.980,0.700,0.315,0.563,0.526,�k�k��,5.9,��
2024/01/07,18:20,0.513,0.775,0.487,0.978,0.701,0.314,0.562,0.526,�k�k��,6.6,��
2024/01/07,18:30,0.513,0.778,0.488,0.979,0.700,0.316,0.563,0.527,�k�k��,5.2,��
2024/01/07,18:40,0.513,0.777,0.488,0.978,0.700,0.315,0.564,0.526,�k�k��,5.0,��
2024/01/07,18:50,0.513,0.777,0.486,0.978,0.701,0.313,0.561,0.527,�k��,5.8,��
2024/01/07,19:00,0.512,0.777,0.489,0.980,0.700,0.316,0.562,0.528,�k��,5.7,��
2024/01/07,19:10,0.512,0.776,0.487,0.980,0.700,0.313,0.564,0.526,�k��,4.8,��
2024/01/07,19:20,0.515,0.776,0.489,0.979,0.698,0.315,0.563,0.527,�k��,5.1,��
2024/01/07,19:30,0.515,0.778,0.488,0.979,0.701,0.314,0.563,0.527,�k��,5.2,��
2024/01/07,19:40,0.514,0.775,0.487,0.980,0.700,0.314,0.563,0.527,�k�k��,6.1,��
2024/01/07,19:50,0.514,0.780,0.488,0.980,0.699,0.314,0.563,0.525,�k,7.1,�L
2024/01/07,20:00,0.514,0.779,0.489,0.981,0.701,0.316,0.563,0.528,�k�k��,10.5,�L
2024/01/07,20:10,0.514,0.779,0.489,0.982,0.700,0.315,0.563,0.525,�k�k��,8.3,��
2024/01/07,20:20,0.514,0.778,0.488,0.982,0.701,0.316,0.563,0.526,�k�k��,7.7,�L
2024/01/07,20:30,0.513,0.777,0.488,0.980,0.701,0.313,0.563,0.527,�k�k��,8.5,�L
2024/01/07,20:40,0.515,0.779,0.489,0.981,0.702,0.314,0.563,0.526,�k�k��,7.7,�L
2024/01/07,20:50,0.519,0.782,0.491,0.985,0.706,0.317,0.563,0.527,�k�k��,8.7,�L
2024/01/07,21:00,0.524,0.785,0.496,0.988,0.706,0.325,0.565,0.527,�k��,9.9,�L
2024/01/07,21:10,0.525,0.784,0.498,0.990,0.706,0.327,0.565,0.528,�k��,7.9,�L
2024/01/07,21:20,0.528,0.786,0.500,0.993,0.707,0.330,0.564,0.528,�k��,7.4,�L
2024/01/07,21:30,0.529,0.786,0.499,0.991,0.708,0.331,0.563,0.528,�k��,7.9,�L
2024/01/07,21:40,0.530,0.783,0.501,0.991,0.708,0.333,0.561,0.526,�k��,8.0,�L
2024/01/07,21:50,0.529,0.783,0.502,0.989,0.705,0.333,0.560,0.526,�k��,8.1,�L
2024/01/07,22:00,0.531,0.783,0.504,0.989,0.705,0.334,0.559,0.526,�k��,7.1,�L
2024/01/07,22:10,0.529,0.782,0.502,0.991,0.705,0.333,0.560,0.526,�k��,6.3,�L
2024/01/07,22:20,0.530,0.782,0.502,0.990,0.706,0.333,0.561,0.528,�k��,5.3,�L
2024/01/07,22:30,0.529,0.783,0.503,0.991,0.708,0.337,0.562,0.528,�k��,4.7,�L
2024/01/07,22:40,0.527,0.779,0.499,0.989,0.708,0.336,0.561,0.529,���k��,3.6,�L
2024/01/07,22:50,0.520,0.777,0.495,0.986,0.700,0.332,0.560,0.528,���k��,3.7,��
2024/01/07,23:00,0.519,0.771,0.494,0.980,0.697,0.329,0.561,0.526,�k��,4.0,��
2024/01/07,23:10,0.515,0.767,0.489,0.976,0.693,0.324,0.558,0.526,�k��,4.9,��
2024/01/07,23:20,0.513,0.765,0.487,0.973,0.691,0.322,0.558,0.524,�k��,5.5,��
2024/01/07,23:30,0.510,0.762,0.485,0.973,0.689,0.319,0.556,0.523,�k��,6.2,��
2024/01/07,23:40,0.508,0.759,0.482,0.968,0.686,0.318,0.556,0.523,�k��,6.3,��
2024/01/07,23:50,0.505,0.759,0.479,0.970,0.685,0.315,0.555,0.523,�k��,6.4,��
